[[{"header":{"parameterUnit":"m.s-1","parameterCategory":2,"la1":30.2991,"la2":30.254,"lo1":-89.0895,"lo2":-89.0444,"dy":0.0017,"dx":0.0017,"nx":28,"ny":28,"refTime":"2025-08-08T09:00:00:Z","depth":"0","parameterNumber":2,"parameterNumberName":"U-component_of_CURRENTS"},"data":[0,0,0,0,0,0,0,0,0,0,0,0,0,0,0,0,0,0,0,0,0,0,0,0,0,0,0,0,0,0,0,0,0,0,0,0,0,0,0,0,0,0,0,0,0,0,0,0,0,0,0,0,0,0,0,0,0,0,0.1703,0.1703,0,0.1739,0.1739,0.174,0.174,0.174,0.1739,0.1739,0.1725,0.1725,0.1725,0,0,0,0,0,0,0,0,0,0,0,0,0,0.1639,0.164,0.1703,0.1703,0.1704,0.1739,0.1739,0.174,0.174,0.174,0.1739,0.1739,0.1725,0.1725,0.1725,0,0,0,0,0,0,0,0,0,0,0,0,0,0.1669,0.164,0.1702,0.1709,0.171,0.1739,0.1739,0.174,0.174,0.174,0.1739,0.1739,0.1725,0.1725,0.1725,0.1736,0,0,0.1725,0.1725,0,0,0,0,0,0,0,0,0.1668,0.1671,0.1707,0.1708,0.171,0.1735,0.1712,0.1736,0.174,0.1728,0.1739,0.1738,0.1725,0.1725,0.1732,0.1735,0.1735,0.1725,0.1725,0.1725,0.1725,0,0,0,0,0,0,0,0.1665,0.167,0.1716,0.1708,0.1709,0.1712,0.1715,0.1717,0.1727,0.1729,0.1729,0.1735,0.1725,0.1732,0.1732,0.1734,0.1725,0.1725,0.1725,0.1725,0.174,0.174,0,0,0,0,0,0,0.1663,0.1668,0.1715,0.1717,0.1688,0.1714,0.1717,0.1727,0.1728,0.1729,0.1735,0.1735,0.1733,0.1732,0.1731,0.1734,0.1725,0.1725,0.1725,0.1739,0.174,0.174,0,0,0,0,0,0,0.1662,0.1667,0.1713,0.1694,0.17,0.1715,0.1726,0.1728,0.1735,0.1734,0.1733,0.1741,0.1732,0.1731,0.1733,0.1734,0.1725,0.1725,0.1739,0.1739,0.174,0.1747,0,0,0,0,0,0,0.166,0.1667,0.1672,0.1694,0.1701,0.1732,0.1727,0.1729,0.174,0.174,0.1738,0.1737,0.1732,0.1733,0.1733,0.1734,0.1724,0.1738,0.1739,0.174,0.1746,0.1747,0.1749,0,0,0,0,0,0.1658,0.1664,0.1672,0.1678,0.1708,0.1732,0.1736,0.1744,0.1741,0.1748,0.1745,0.1737,0.1738,0.1734,0.1733,0.1734,0.1738,0.1739,0.174,0.1745,0.1747,0.1749,0,0,0,0,0,0,0.1634,0.1666,0.1675,0.169,0.1711,0.1733,0.1739,0.1747,0.1752,0.1747,0.1743,0.1742,0.1745,0.1741,0.1736,0.1742,0.1736,0.1737,0.1741,0.1742,0.1744,0.1726,0.1724,0,0,0,0,0,0.1634,0.1649,0.1679,0.169,0.1702,0.1722,0.1732,0.174,0.1749,0.1751,0.1751,0.1749,0.175,0.1747,0.1749,0.1751,0.1768,0.1752,0.1753,0.1755,0.174,0.1757,0.1759,0.1743,0.1743,0.1743,0,0,0.1624,0.1646,0.1652,0.1686,0.1702,0.1716,0.1726,0.1743,0.1746,0.1748,0.1748,0.1756,0.1754,0.1757,0.1758,0.1751,0.1779,0.1756,0.1757,0.1741,0.1758,0.176,0.1761,0.1744,0.1744,0.1744,0,0,0.1614,0.1637,0.1647,0.1668,0.1698,0.1712,0.1718,0.1743,0.1747,0.1756,0.1756,0.1761,0.1766,0.1762,0.1761,0.1771,0.1789,0.1778,0.1764,0.1782,0.1783,0.1784,0.1854,0.1861,0.1774,0.1774,0.1774,0,0.16,0.162,0.1652,0.1668,0.1678,0.1709,0.1715,0.1728,0.1748,0.175,0.1753,0.1764,0.1763,0.1762,0.1764,0.1772,0.1804,0.1758,0.1783,0.1784,0.1785,0.1856,0.1864,0.1774,0.1774,0.1774,0.1774,0,0.1599,0.1616,0.1623,0.1653,0.1668,0.1682,0.1706,0.1718,0.1728,0.174,0.1748,0.1756,0.1761,0.1765,0.1764,0.1771,0.1804,0.1787,0.1777,0.1786,0.1862,0.187,0.1775,0.1775,0.1775,0.1775,0,0,0.1563,0.1612,0.1614,0.1622,0.1661,0.167,0.1682,0.17,0.1709,0.1724,0.1735,0.1733,0.1748,0.1747,0.1756,0.1761,0.1812,0.1774,0.1775,0.1842,0.1897,0.2048,0.2071,0.1801,0.1801,0.1802,0.1965,0,0.155,0.1571,0.1599,0.1606,0.1617,0.1647,0.1656,0.1675,0.17,0.1723,0.1731,0.1752,0.1739,0.1757,0.1756,0.1808,0.1825,0.1772,0.1878,0.1882,0.2011,0.2081,0.2063,0.2217,0.1973,0.1974,0.1975,0,0.1538,0.1554,0.1562,0.1586,0.1593,0.16,0.1623,0.1639,0.168,0.1704,0.1724,0.1752,0.1783,0.1764,0.1837,0.181,0.1844,0.1872,0.1879,0.2013,0.2046,0.2158,0.224,0.2151,0.1987,0.1986,0.1985,0,0.1496,0.1524,0.1525,0.1535,0.157,0.1572,0.1588,0.1627,0.1662,0.1704,0.1761,0.1775,0.1847,0.1848,0.1953,0.1887,0.2062,0.1978,0.2143,0.2156,0.2157,0.217,0.2156,0.2002,0.2001,0.2001,0.2,0,0.1474,0.1472,0.1505,0.1507,0.1512,0.154,0.1564,0.1588,0.1654,0.1727,0.1755,0.1852,0.1871,0.1991,0.1995,0.2163,0.211,0.2167,0.2208,0.2168,0.218,0.2116,0.206,0.2007,0.2006,0.2005,0.2003,0,0.1432,0.1456,0.146,0.1487,0.1497,0.1499,0.1568,0.1598,0.167,0.1778,0.1808,0.1952,0.2129,0.2199,0.2285,0.2293,0.2333,0.2434,0.2434,0.2471,0.2494,0.244,0.2413,0.2331,0.2599,0.2604,0.2608,0,0.1414,0.1413,0.1442,0.1457,0.1471,0.1495,0.1525,0.159,0.1657,0.1863,0.1933,0.2153,0.2315,0.256,0.2635,0.2733,0.2558,0.2753,0.2591,0.253,0.2497,0.2337,0.2253,0.2607,0.261,0.2613,0.2616,0,0.138,0.1392,0.1404,0.1442,0.1468,0.1503,0.1565,0.1623,0.1745,0.1869,0.2087,0.2233,0.2551,0.2702,0.2899,0.2921,0.2634,0.282,0.2714,0.2489,0.2348,0.228,0.25,0.2642,0.2639,0.2638,0.2636,0.2635,0.1359,0.1366,0.1399,0.1428,0.1462,0.1513,0.1531,0.1641,0.1759,0.194,0.2137,0.2346,0.2638,0.2928,0.2964,0.3014,0.2874,0.2875,0.2819,0.2665,0.256,0.29,0.3115,0.3115,0.3115,0.3115,0.3115,0,0.1343,0.1363,0.1392,0.1428,0.1452,0.1482,0.1559,0.1583,0.1706,0.193,0.2111,0.2449,0.2675,0.2864,0.306,0.2983,0.2766,0.2886,0.2571,0.2485,0.2764,0.2738,0.2932,0.2932,0.2932,0.2932,0.2932,0.2932,0.134,0.1362,0.138,0.141,0.1433,0.1436,0.1461,0.1518,0.1644,0.1868,0.2067,0.2266,0.2637,0.2949,0.2978,0.2897,0.2574,0.2555,0.2443,0.2572,0.2561,0.255,0.2509,0.2651,0.2651,0.2048,0.2044,0.2041]},{"header":{"parameterUnit":"m.s-1","parameterCategory":2,"la1":30.2991,"la2":30.254,"lo1":-89.0895,"lo2":-89.0444,"dy":0.0017,"dx":0.0017,"nx":28,"ny":28,"refTime":"2025-08-08T09:00:00:Z","depth":"0","parameterNumber":3,"parameterNumberName":"V-component_of_CURRENTS"},"data":[0,0,0,0,0,0,0,0,0,0,0,0,0,0,0,0,0,0,0,0,0,0,0,0,0,0,0,0,0,0,0,0,0,0,0,0,0,0,0,0,0,0,0,0,0,0,0,0,0,0,0,0,0,0,0,0,0,0,-0.0143,-0.0144,0,-0.0212,-0.0213,-0.0214,-0.0255,-0.0256,-0.0256,-0.0256,-0.0342,-0.0344,-0.0346,0,0,0,0,0,0,0,0,0,0,0,0,0,-0.0072,-0.0073,-0.0143,-0.0144,-0.0145,-0.0212,-0.0213,-0.0214,-0.0255,-0.0256,-0.0256,-0.0256,-0.0341,-0.0343,-0.0346,0,0,0,0,0,0,0,0,0,0,0,0,0,-0.0119,-0.0073,-0.0143,-0.0173,-0.0176,-0.0212,-0.0213,-0.0214,-0.0255,-0.0256,-0.0256,-0.0256,-0.034,-0.0343,-0.0346,-0.0362,0,0,-0.0356,-0.0358,0,0,0,0,0,0,0,0,-0.0116,-0.0121,-0.0168,-0.0171,-0.0175,-0.0225,-0.022,-0.0264,-0.0255,-0.0226,-0.0256,-0.0256,-0.0304,-0.031,-0.0323,-0.0366,-0.037,-0.0357,-0.0358,-0.036,-0.0361,0,0,0,0,0,0,0,-0.0113,-0.0119,-0.0171,-0.0169,-0.0173,-0.0192,-0.0198,-0.0228,-0.0263,-0.0229,-0.0232,-0.0238,-0.0306,-0.032,-0.0325,-0.0371,-0.0356,-0.0359,-0.0361,-0.0363,-0.045,-0.045,0,0,0,0,0,0,-0.0102,-0.0116,-0.0169,-0.0173,-0.0145,-0.0193,-0.02,-0.0209,-0.0263,-0.0271,-0.0238,-0.024,-0.0314,-0.0321,-0.0328,-0.037,-0.036,-0.0363,-0.0365,-0.045,-0.045,-0.0451,0,0,0,0,0,0,-0.01,-0.0106,-0.0166,-0.0145,-0.0154,-0.0193,-0.0203,-0.021,-0.0225,-0.027,-0.0278,-0.0245,-0.0315,-0.0324,-0.0357,-0.0373,-0.0364,-0.0367,-0.0449,-0.045,-0.045,-0.044,0,0,0,0,0,0,-0.0098,-0.0105,-0.0108,-0.0145,-0.0155,-0.0188,-0.0203,-0.0211,-0.0229,-0.0232,-0.0279,-0.0287,-0.0315,-0.0352,-0.036,-0.0377,-0.037,-0.0449,-0.045,-0.045,-0.044,-0.044,-0.044,0,0,0,0,0,-0.0095,-0.0101,-0.0108,-0.0114,-0.0158,-0.0188,-0.0195,-0.0224,-0.0229,-0.0237,-0.0267,-0.0286,-0.0363,-0.0355,-0.0364,-0.0382,-0.0448,-0.0449,-0.045,-0.044,-0.044,-0.044,0,0,0,0,0,0,-0.0073,-0.0106,-0.0115,-0.0131,-0.0156,-0.0195,-0.0206,-0.022,-0.0251,-0.0253,-0.0291,-0.0301,-0.0338,-0.0357,-0.0348,-0.0409,-0.0409,-0.0412,-0.0398,-0.0398,-0.0398,-0.0396,-0.0372,0,0,0,0,0,-0.0067,-0.008,-0.0113,-0.0125,-0.0136,-0.0167,-0.0182,-0.0201,-0.0231,-0.0245,-0.0277,-0.0312,-0.0349,-0.0369,-0.0403,-0.0434,-0.0442,-0.0451,-0.0452,-0.0452,-0.0456,-0.0487,-0.0491,-0.0453,-0.0453,-0.0453,0,0,-0.0062,-0.0081,-0.0089,-0.0121,-0.0142,-0.0165,-0.0177,-0.0199,-0.0221,-0.0249,-0.0286,-0.0314,-0.0356,-0.0395,-0.0413,-0.0414,-0.0461,-0.0453,-0.0453,-0.0457,-0.0488,-0.0492,-0.0495,-0.0454,-0.0454,-0.0454,0,0,-0.0063,-0.0074,-0.0088,-0.0108,-0.0137,-0.0158,-0.0162,-0.0198,-0.0217,-0.0251,-0.028,-0.0313,-0.0366,-0.0403,-0.0428,-0.0448,-0.0461,-0.0457,-0.0461,-0.0491,-0.0494,-0.0497,-0.0486,-0.0489,-0.0458,-0.0458,-0.0458,0,-0.0055,-0.0077,-0.0096,-0.0116,-0.013,-0.0154,-0.0171,-0.0198,-0.0241,-0.0253,-0.0261,-0.0339,-0.0373,-0.0426,-0.0438,-0.045,-0.0454,-0.0456,-0.0491,-0.0495,-0.0498,-0.0486,-0.0489,-0.0458,-0.0458,-0.0458,-0.0458,0,-0.0072,-0.0086,-0.0094,-0.0127,-0.0145,-0.0161,-0.0195,-0.0212,-0.0231,-0.0258,-0.0303,-0.035,-0.039,-0.0414,-0.0437,-0.0481,-0.0469,-0.0486,-0.0489,-0.0501,-0.0488,-0.0491,-0.0457,-0.0458,-0.0458,-0.0458,0,0,-0.0061,-0.0099,-0.0101,-0.0106,-0.0149,-0.0158,-0.0193,-0.0225,-0.0223,-0.0283,-0.029,-0.0379,-0.0389,-0.0418,-0.0449,-0.0488,-0.051,-0.0497,-0.0499,-0.0482,-0.0546,-0.0495,-0.0493,-0.0534,-0.0535,-0.0536,-0.0517,0,-0.0068,-0.009,-0.0116,-0.0132,-0.014,-0.0168,-0.0188,-0.0217,-0.0236,-0.0245,-0.0311,-0.0325,-0.0395,-0.039,-0.0453,-0.048,-0.0522,-0.0511,-0.054,-0.054,-0.0492,-0.0498,-0.0475,-0.0454,-0.052,-0.052,-0.0521,0,-0.0076,-0.0086,-0.01,-0.0111,-0.0116,-0.0128,-0.0133,-0.0154,-0.0183,-0.019,-0.0236,-0.0264,-0.0324,-0.0369,-0.0468,-0.0454,-0.0508,-0.0545,-0.0545,-0.0508,-0.0497,-0.0458,-0.0457,-0.0648,-0.0526,-0.0525,-0.0525,0,-0.0041,-0.0071,-0.0072,-0.0081,-0.0104,-0.0104,-0.0111,-0.0132,-0.0105,-0.0134,-0.0086,-0.0202,-0.0179,-0.0313,-0.0386,-0.0426,-0.0467,-0.0527,-0.054,-0.0535,-0.0527,-0.0519,-0.0714,-0.0614,-0.0614,-0.0614,-0.0614,0,-0.003,-0.0028,-0.0047,-0.0043,-0.002,-0.0055,-0.0015,-0.0034,-0.001,0.0073,-0.0037,0.0037,-0.0161,-0.0199,-0.0342,-0.0418,-0.0433,-0.0537,-0.0535,-0.0518,-0.051,-0.0685,-0.0781,-0.0613,-0.0613,-0.0614,-0.0614,0,0.0017,-0.0008,0.0007,-0.0003,0.0002,0.0028,0.0079,0.0126,0.0136,0.0254,0.0269,0.0242,0.0206,0.002,-0.0132,-0.0289,-0.0496,-0.0441,-0.0382,-0.0375,-0.0601,-0.0694,-0.0842,-0.091,-0.0479,-0.0478,-0.0477,0,0.0042,0.0049,0.0062,0.0098,0.0102,0.0143,0.0191,0.0199,0.0293,0.0418,0.0513,0.051,0.056,0.0345,0.0064,-0.0177,-0.0389,-0.0338,-0.0442,-0.0609,-0.0713,-0.0791,-0.0845,-0.0416,-0.0415,-0.0414,-0.0413,0,0.0106,0.011,0.0132,0.0209,0.0263,0.0333,0.0424,0.0533,0.0608,0.073,0.0926,0.0972,0.0792,0.0582,0.0233,0.0028,-0.0463,-0.032,-0.0532,-0.0712,-0.0773,-0.0835,-0.0409,-0.0402,-0.0403,-0.0404,-0.0405,-0.0405,0.0176,0.0221,0.0269,0.0352,0.0415,0.0562,0.0688,0.0817,0.1009,0.1241,0.1253,0.1354,0.0972,0.0514,0.0233,-0.0332,-0.0343,-0.0539,-0.0641,-0.0707,-0.0783,-0.0305,-0.0275,-0.0276,-0.0276,-0.0276,-0.0276,0,0.0297,0.0349,0.0421,0.0542,0.0662,0.0665,0.0877,0.1034,0.1314,0.145,0.1609,0.1463,0.1015,0.0485,-0.0237,-0.0607,-0.0785,-0.0837,-0.0997,-0.104,-0.0651,-0.0662,-0.0667,-0.0667,-0.0667,-0.0667,-0.0666,-0.0666,0.0372,0.0488,0.0533,0.0762,0.0855,0.1066,0.122,0.1419,0.1557,0.1751,0.1776,0.1763,0.1329,0.0057,-0.0813,-0.1013,-0.1315,-0.133,-0.1479,-0.1281,-0.1264,-0.1247,-0.1285,-0.1421,-0.1422,-0.1835,-0.184,-0.1843]}],[{"header":{"parameterUnit":"m.s-1","parameterCategory":2,"la1":30.2991,"la2":30.254,"lo1":-89.0895,"lo2":-89.0444,"dy":0.0017,"dx":0.0017,"nx":28,"ny":28,"refTime":"2025-08-08T09:00:00:Z","depth":"2","parameterNumber":2,"parameterNumberName":"U-component_of_CURRENTS"},"data":[0,0,0,0,0,0,0,0,0,0,0,0,0,0,0,0,0,0,0,0,0,0,0,0,0,0,0,0,0,0,0,0,0,0,0,0,0,0,0,0,0,0,0,0,0,0,0,0,0,0,0,0,0,0,0,0,0,0,0.1806,0.1807,0,0.1845,0.1845,0.1846,0.1845,0.1845,0.1845,0.1844,0.1832,0.1832,0.1833,0,0,0,0,0,0,0,0,0,0,0,0,0,0.1742,0.1743,0.1806,0.1807,0.1807,0.1845,0.1846,0.1846,0.1846,0.1845,0.1845,0.1844,0.1832,0.1832,0.1833,0,0,0,0,0,0,0,0,0,0,0,0,0,0.1773,0.1743,0.1806,0.1812,0.1813,0.1845,0.1846,0.1846,0.1846,0.1845,0.1844,0.1844,0.1832,0.1832,0.1833,0.1846,0,0,0.1833,0.1833,0,0,0,0,0,0,0,0,0.1771,0.1775,0.1811,0.1812,0.1813,0.1841,0.1819,0.1844,0.1846,0.1832,0.1844,0.1843,0.1831,0.1832,0.184,0.1846,0.1845,0.1833,0.1833,0.1833,0.1833,0,0,0,0,0,0,0,0.1769,0.1774,0.1821,0.1812,0.1813,0.1817,0.182,0.1824,0.1833,0.1834,0.1834,0.184,0.1832,0.184,0.1839,0.1845,0.1833,0.1833,0.1833,0.1833,0.1856,0.1857,0,0,0,0,0,0,0.1767,0.1772,0.182,0.1822,0.1791,0.1818,0.1822,0.1832,0.1835,0.1835,0.184,0.184,0.184,0.1839,0.1839,0.1851,0.1833,0.1833,0.1833,0.1856,0.1856,0.1857,0,0,0,0,0,0,0.1765,0.1771,0.1818,0.1798,0.1805,0.182,0.1831,0.1833,0.1841,0.184,0.184,0.1847,0.1839,0.1839,0.1843,0.185,0.1833,0.1833,0.1855,0.1856,0.1856,0.1877,0,0,0,0,0,0,0.1763,0.177,0.1776,0.1798,0.1806,0.1838,0.1832,0.1834,0.1846,0.1846,0.1846,0.1844,0.1839,0.1843,0.1843,0.185,0.1833,0.1854,0.1855,0.1856,0.1875,0.1878,0.1881,0,0,0,0,0,0.1761,0.177,0.1776,0.1782,0.1814,0.1838,0.1843,0.1851,0.1847,0.1855,0.1853,0.1844,0.1849,0.1843,0.1843,0.1851,0.1854,0.1855,0.1856,0.1874,0.1878,0.188,0,0,0,0,0,0,0.1739,0.1772,0.1779,0.1796,0.1817,0.1839,0.1847,0.1854,0.1861,0.1857,0.1852,0.1851,0.1858,0.1853,0.1847,0.1861,0.185,0.1851,0.1863,0.1867,0.1869,0.1849,0.1834,0,0,0,0,0,0.174,0.1756,0.1786,0.1798,0.1811,0.183,0.1841,0.1849,0.1859,0.1861,0.1861,0.186,0.1865,0.1864,0.1867,0.1874,0.1886,0.1879,0.1881,0.1883,0.1868,0.1892,0.1895,0.1861,0.1861,0.1861,0,0,0.1732,0.1753,0.176,0.1795,0.1811,0.1831,0.1835,0.1853,0.1864,0.1858,0.1867,0.187,0.187,0.1879,0.1881,0.1873,0.1909,0.1885,0.1887,0.187,0.1893,0.1896,0.1899,0.1861,0.1861,0.1861,0,0,0.1725,0.1747,0.176,0.1784,0.1815,0.183,0.1837,0.1863,0.1868,0.188,0.188,0.1886,0.1891,0.1893,0.1894,0.1912,0.1924,0.1917,0.1911,0.1935,0.1937,0.194,0.2,0.2007,0.1916,0.1916,0.1916,0,0.1712,0.1737,0.1766,0.1788,0.1804,0.183,0.1846,0.1862,0.1882,0.1886,0.1881,0.1896,0.1895,0.1908,0.1909,0.1917,0.1943,0.19,0.1938,0.194,0.1942,0.2002,0.201,0.1917,0.1917,0.1917,0.1916,0,0.172,0.1741,0.1752,0.1789,0.1811,0.1829,0.1859,0.1874,0.1881,0.1893,0.1906,0.191,0.1915,0.1922,0.1915,0.1933,0.1955,0.1942,0.1929,0.1947,0.201,0.2018,0.1918,0.1918,0.1918,0.1917,0,0,0.1684,0.1744,0.1747,0.1757,0.1813,0.1821,0.1853,0.1879,0.1885,0.1905,0.1915,0.1921,0.1924,0.1924,0.1929,0.1939,0.1989,0.194,0.1941,0.1999,0.2073,0.2127,0.2142,0.1984,0.1985,0.1985,0.2126,0,0.1677,0.1707,0.1746,0.1763,0.1778,0.182,0.1838,0.1865,0.1888,0.1906,0.1922,0.1936,0.1928,0.1932,0.1942,0.1979,0.2004,0.1954,0.2047,0.205,0.2094,0.215,0.1952,0.2063,0.2134,0.2135,0.2136,0,0.1671,0.1691,0.1711,0.174,0.1749,0.1763,0.1792,0.1815,0.1862,0.1881,0.191,0.1932,0.1969,0.1947,0.2023,0.1995,0.2026,0.2051,0.2057,0.2096,0.2117,0.2049,0.2075,0.2149,0.2148,0.2147,0.2146,0,0.1619,0.1659,0.1667,0.1683,0.1728,0.1733,0.1753,0.1799,0.1838,0.1874,0.1927,0.1948,0.2014,0.2022,0.212,0.2058,0.2226,0.2149,0.2233,0.2239,0.2082,0.2073,0.2186,0.2186,0.2186,0.2185,0.2185,0,0.1599,0.1598,0.1636,0.164,0.1643,0.1682,0.1702,0.173,0.1802,0.1878,0.1911,0.2007,0.2035,0.2154,0.2156,0.2274,0.2273,0.2246,0.2276,0.2091,0.2082,0.2145,0.2139,0.219,0.2189,0.2188,0.2187,0,0.1548,0.1577,0.1582,0.1613,0.1624,0.1622,0.1701,0.1729,0.1801,0.1914,0.1945,0.2092,0.2249,0.2325,0.2407,0.2379,0.2436,0.2478,0.2293,0.2297,0.2407,0.24,0.2516,0.2519,0.2521,0.2523,0.2525,0,0.1526,0.1525,0.1557,0.1574,0.1591,0.1612,0.1646,0.1715,0.1787,0.1992,0.2066,0.2265,0.2394,0.2577,0.2577,0.2623,0.2624,0.2459,0.2272,0.2422,0.2439,0.2428,0.2418,0.2084,0.2082,0.2081,0.208,0,0.1489,0.15,0.1514,0.1555,0.1583,0.1624,0.1691,0.1755,0.1883,0.1987,0.2186,0.2293,0.2508,0.2489,0.2595,0.2569,0.2414,0.2429,0.2642,0.2047,0.2031,0.2043,0.2043,0.2065,0.2067,0.2068,0.2068,0.2069,0.1465,0.1472,0.151,0.1544,0.1581,0.1646,0.1687,0.1776,0.1882,0.2024,0.2176,0.2257,0.2326,0.2369,0.2357,0.2339,0.245,0.2273,0.2271,0.2271,0.2211,0.2202,0.226,0.2262,0.2264,0.2266,0.2268,0,0.1454,0.1478,0.1509,0.1559,0.16,0.1627,0.1731,0.1752,0.1852,0.1949,0.2046,0.1939,0.1971,0.2064,0.2006,0.2012,0.19,0.1934,0.1744,0.1764,0.178,0.1684,0.1598,0.1596,0.1593,0.1591,0,0,0.1456,0.1487,0.151,0.1574,0.1609,0.1663,0.1717,0.1708,0.1755,0.1733,0.1733,0.1852,0.1981,0.174,0.1739,0.1663,0.1682,0.1604,0.2148,0.1943,0.1955,0.1998,0.188,0,0,0,0,0]},{"header":{"parameterUnit":"m.s-1","parameterCategory":2,"la1":30.2991,"la2":30.254,"lo1":-89.0895,"lo2":-89.0444,"dy":0.0017,"dx":0.0017,"nx":28,"ny":28,"refTime":"2025-08-08T09:00:00:Z","depth":"2","parameterNumber":3,"parameterNumberName":"V-component_of_CURRENTS"},"data":[0,0,0,0,0,0,0,0,0,0,0,0,0,0,0,0,0,0,0,0,0,0,0,0,0,0,0,0,0,0,0,0,0,0,0,0,0,0,0,0,0,0,0,0,0,0,0,0,0,0,0,0,0,0,0,0,0,0,-0.0204,-0.0205,0,-0.0272,-0.0273,-0.0274,-0.0315,-0.0315,-0.0315,-0.0315,-0.0402,-0.0404,-0.0406,0,0,0,0,0,0,0,0,0,0,0,0,0,-0.0141,-0.0141,-0.0204,-0.0205,-0.0206,-0.0272,-0.0273,-0.0274,-0.0315,-0.0315,-0.0315,-0.0315,-0.0401,-0.0404,-0.0406,0,0,0,0,0,0,0,0,0,0,0,0,0,-0.0185,-0.0142,-0.0204,-0.0233,-0.0236,-0.0272,-0.0273,-0.0274,-0.0315,-0.0315,-0.0315,-0.0315,-0.04,-0.0403,-0.0407,-0.0424,0,0,-0.0417,-0.0418,0,0,0,0,0,0,0,0,-0.0183,-0.0188,-0.0228,-0.0231,-0.0235,-0.0284,-0.0283,-0.0325,-0.0315,-0.0286,-0.0315,-0.0315,-0.0363,-0.037,-0.0383,-0.0428,-0.0432,-0.0417,-0.0419,-0.0421,-0.0421,0,0,0,0,0,0,0,-0.0179,-0.0185,-0.0232,-0.0229,-0.0233,-0.0254,-0.026,-0.0291,-0.0324,-0.0288,-0.0291,-0.0297,-0.0366,-0.038,-0.0386,-0.0433,-0.0417,-0.042,-0.0422,-0.0423,-0.0511,-0.0511,0,0,0,0,0,0,-0.0167,-0.0182,-0.023,-0.0234,-0.0207,-0.0254,-0.0262,-0.0269,-0.0323,-0.0332,-0.0297,-0.0299,-0.0374,-0.0382,-0.0389,-0.043,-0.0421,-0.0424,-0.0426,-0.051,-0.0511,-0.0511,0,0,0,0,0,0,-0.0166,-0.0171,-0.0227,-0.0209,-0.0217,-0.0255,-0.0263,-0.027,-0.0285,-0.033,-0.0338,-0.0305,-0.0375,-0.0384,-0.0417,-0.0433,-0.0425,-0.0428,-0.051,-0.051,-0.0511,-0.0502,0,0,0,0,0,0,-0.0164,-0.017,-0.0172,-0.0208,-0.0218,-0.0247,-0.0263,-0.0271,-0.0288,-0.0291,-0.0339,-0.0347,-0.0376,-0.0411,-0.042,-0.0438,-0.0431,-0.051,-0.051,-0.0511,-0.0502,-0.0502,-0.0502,0,0,0,0,0,-0.0161,-0.0165,-0.0172,-0.0178,-0.0219,-0.0247,-0.0254,-0.0282,-0.0288,-0.0296,-0.0326,-0.0346,-0.0422,-0.0414,-0.0424,-0.0443,-0.0509,-0.051,-0.0511,-0.0502,-0.0502,-0.0502,0,0,0,0,0,0,-0.0139,-0.0171,-0.0179,-0.0192,-0.0215,-0.0253,-0.0264,-0.0279,-0.0309,-0.0312,-0.035,-0.0361,-0.0397,-0.0417,-0.0408,-0.0469,-0.0469,-0.0472,-0.0459,-0.0459,-0.0459,-0.0453,-0.0434,0,0,0,0,0,-0.0133,-0.0145,-0.0176,-0.0185,-0.0196,-0.0227,-0.0241,-0.0259,-0.0289,-0.0302,-0.0335,-0.037,-0.0408,-0.0429,-0.0462,-0.0493,-0.0501,-0.0511,-0.0512,-0.0512,-0.0513,-0.0541,-0.0544,-0.0513,-0.0513,-0.0513,0,0,-0.0127,-0.0146,-0.0153,-0.0181,-0.0202,-0.0222,-0.0237,-0.0256,-0.0276,-0.0307,-0.0342,-0.0372,-0.0415,-0.0454,-0.0472,-0.0473,-0.052,-0.0513,-0.0513,-0.0514,-0.0542,-0.0545,-0.0548,-0.0514,-0.0514,-0.0514,0,0,-0.0125,-0.0136,-0.0148,-0.0166,-0.0194,-0.0215,-0.0217,-0.0253,-0.0272,-0.0305,-0.0335,-0.037,-0.0423,-0.046,-0.0486,-0.0505,-0.0519,-0.0515,-0.0517,-0.0544,-0.0547,-0.0549,-0.0543,-0.0546,-0.0517,-0.0517,-0.0517,0,-0.0117,-0.0134,-0.0155,-0.0171,-0.0182,-0.0209,-0.0221,-0.025,-0.0291,-0.0302,-0.0314,-0.0392,-0.043,-0.048,-0.0493,-0.0507,-0.0511,-0.0513,-0.0544,-0.0547,-0.055,-0.0543,-0.0546,-0.0517,-0.0517,-0.0517,-0.0517,0,-0.0128,-0.0139,-0.0146,-0.0175,-0.019,-0.0203,-0.0237,-0.0254,-0.0275,-0.0302,-0.0346,-0.0398,-0.0437,-0.0464,-0.0491,-0.0533,-0.0524,-0.0539,-0.0542,-0.0552,-0.0545,-0.0547,-0.0516,-0.0517,-0.0517,-0.0517,0,0,-0.0114,-0.0147,-0.0149,-0.0151,-0.0189,-0.0197,-0.0227,-0.0255,-0.0255,-0.0315,-0.0322,-0.0413,-0.0427,-0.0456,-0.0493,-0.0532,-0.0557,-0.0545,-0.0547,-0.0536,-0.0593,-0.0593,-0.0595,-0.0579,-0.058,-0.058,-0.0572,0,-0.0114,-0.013,-0.0153,-0.0163,-0.0168,-0.0194,-0.0212,-0.0239,-0.026,-0.0272,-0.0339,-0.0358,-0.0429,-0.043,-0.049,-0.0526,-0.0567,-0.0556,-0.0588,-0.0588,-0.0585,-0.06,-0.0569,-0.0561,-0.0575,-0.0575,-0.0576,0,-0.0117,-0.0123,-0.0128,-0.0134,-0.0138,-0.0148,-0.0151,-0.017,-0.0201,-0.0211,-0.0256,-0.029,-0.0352,-0.04,-0.0501,-0.0488,-0.0546,-0.0588,-0.0589,-0.0597,-0.0594,-0.0558,-0.0565,-0.0581,-0.058,-0.058,-0.058,0,-0.0079,-0.0102,-0.0097,-0.0103,-0.0121,-0.0119,-0.0125,-0.0146,-0.0124,-0.0153,-0.0115,-0.0225,-0.0216,-0.0342,-0.0433,-0.0464,-0.0522,-0.0569,-0.0629,-0.0628,-0.0612,-0.0608,-0.0653,-0.0653,-0.0653,-0.0653,-0.0653,0,-0.0062,-0.0056,-0.0073,-0.0066,-0.004,-0.0071,-0.0033,-0.005,-0.0033,0.0023,-0.0067,-0.003,-0.02,-0.025,-0.039,-0.0498,-0.0488,-0.063,-0.0635,-0.0605,-0.0602,-0.0633,-0.0631,-0.0652,-0.0652,-0.0652,-0.0653,0,-0.0016,-0.0036,-0.0018,-0.0024,-0.0018,0.0008,0.0053,0.0092,0.0099,0.018,0.019,0.0146,0.0067,-0.0096,-0.0253,-0.039,-0.0525,-0.0567,-0.0504,-0.0505,-0.0626,-0.0624,-0.0653,-0.0653,-0.0653,-0.0653,-0.0653,0,0.0009,0.0019,0.0035,0.0068,0.0072,0.0111,0.0153,0.0159,0.0235,0.0297,0.0367,0.0317,0.0275,0.0051,-0.019,-0.0424,-0.0475,-0.0535,-0.0622,-0.0629,-0.0631,-0.0628,-0.0625,-0.0582,-0.0581,-0.0581,-0.058,0,0.0069,0.0073,0.0095,0.0165,0.0212,0.0274,0.0349,0.0434,0.0475,0.0512,0.0573,0.053,0.0343,0.0111,-0.0176,-0.0341,-0.051,-0.0536,-0.0548,-0.0593,-0.0564,-0.0565,-0.0564,-0.0577,-0.0577,-0.0577,-0.0577,-0.0578,0.0129,0.0169,0.0209,0.0277,0.034,0.0454,0.0527,0.0598,0.0682,0.0759,0.0722,0.0656,0.0423,0.0038,-0.0207,-0.0455,-0.0486,-0.0596,-0.0597,-0.0598,-0.0598,-0.0572,-0.0584,-0.0584,-0.0584,-0.0585,-0.0585,0,0.0214,0.026,0.0327,0.0416,0.0495,0.0516,0.0671,0.0708,0.0787,0.0839,0.0816,0.059,0.0353,0.0103,-0.0264,-0.0512,-0.0539,-0.058,-0.0564,-0.0566,-0.0568,-0.0567,-0.0545,-0.0545,-0.0545,-0.0546,0,0,0.0268,0.0348,0.038,0.053,0.0601,0.071,0.0799,0.0814,0.086,0.0852,0.083,0.076,0.0451,0.0196,-0.0126,-0.0324,-0.0391,-0.0367,-0.0377,-0.0323,-0.0322,-0.0559,-0.0558,0,0,0,0,0]}],[{"header":{"parameterUnit":"m.s-1","parameterCategory":2,"la1":30.2991,"la2":30.254,"lo1":-89.0895,"lo2":-89.0444,"dy":0.0017,"dx":0.0017,"nx":28,"ny":28,"refTime":"2025-08-08T09:00:00:Z","depth":"4","parameterNumber":2,"parameterNumberName":"U-component_of_CURRENTS"},"data":[0,0,0,0,0,0,0,0,0,0,0,0,0,0,0,0,0,0,0,0,0,0,0,0,0,0,0,0,0,0,0,0,0,0,0,0,0,0,0,0,0,0,0,0,0,0,0,0,0,0,0,0,0,0,0,0,0,0,0.0994,0.0995,0,0.1055,0.1056,0.1056,0.1099,0.1099,0.11,0.11,0.1156,0.1157,0.1158,0,0,0,0,0,0,0,0,0,0,0,0,0,0.0913,0.0914,0.0994,0.0995,0.0996,0.1055,0.1056,0.1056,0.1098,0.1099,0.11,0.1101,0.1156,0.1157,0.1158,0,0,0,0,0,0,0,0,0,0,0,0,0,0.0955,0.0914,0.0994,0.1027,0.1031,0.1055,0.1056,0.1056,0.1098,0.1099,0.11,0.1101,0.1155,0.1157,0.1158,0.1147,0,0,0.1162,0.1162,0,0,0,0,0,0,0,0,0.0953,0.0958,0.1021,0.1025,0.1029,0.1073,0.1048,0.1087,0.1098,0.1069,0.11,0.1102,0.1129,0.1133,0.1137,0.1149,0.1152,0.1162,0.1163,0.1163,0.1164,0,0,0,0,0,0,0,0.095,0.0955,0.1015,0.1022,0.1027,0.1039,0.1045,0.1055,0.109,0.1072,0.1076,0.1088,0.1131,0.1136,0.1139,0.1153,0.1162,0.1163,0.1164,0.1164,0.1257,0.1259,0,0,0,0,0,0,0.0948,0.0952,0.1013,0.1017,0.0996,0.104,0.1047,0.1055,0.109,0.1098,0.1087,0.109,0.1133,0.1137,0.1141,0.1217,0.1163,0.1165,0.1165,0.1255,0.1257,0.1259,0,0,0,0,0,0,0.0946,0.0953,0.1011,0.0989,0.0998,0.104,0.1049,0.1056,0.1088,0.1103,0.1109,0.1115,0.1134,0.1139,0.1183,0.1216,0.1165,0.1166,0.1253,0.1256,0.1258,0.1313,0,0,0,0,0,0,0.0943,0.0951,0.0967,0.0989,0.0999,0.104,0.1049,0.1057,0.1094,0.1098,0.1128,0.1133,0.1135,0.1181,0.1184,0.1217,0.1167,0.1251,0.1255,0.1258,0.1309,0.1317,0.1324,0,0,0,0,0,0.094,0.0951,0.0967,0.0976,0.1016,0.1042,0.1048,0.1078,0.1094,0.111,0.1141,0.1134,0.1203,0.1183,0.1186,0.1221,0.125,0.1254,0.1257,0.1306,0.1316,0.1324,0,0,0,0,0,0,0.0926,0.0958,0.0976,0.0998,0.1027,0.1051,0.1071,0.1091,0.1126,0.1141,0.1151,0.1158,0.1206,0.1207,0.1185,0.1258,0.1226,0.1231,0.1262,0.1271,0.1279,0.1277,0.1169,0,0,0,0,0,0.093,0.0948,0.098,0.1002,0.1017,0.1049,0.1068,0.1092,0.1121,0.1139,0.1162,0.1192,0.1219,0.1241,0.1257,0.1297,0.1297,0.1323,0.1331,0.1337,0.1339,0.1375,0.1386,0.1272,0.1272,0.1271,0,0,0.0931,0.0953,0.0965,0.1001,0.1026,0.1051,0.1063,0.11,0.1131,0.1138,0.1192,0.1214,0.1233,0.128,0.1302,0.129,0.137,0.1342,0.1347,0.1345,0.138,0.1391,0.1401,0.1274,0.1274,0.1273,0,0,0.0933,0.0963,0.0976,0.1003,0.1048,0.1069,0.1086,0.1126,0.1157,0.1208,0.1224,0.1273,0.131,0.1338,0.1353,0.1412,0.1402,0.1421,0.1465,0.15,0.151,0.1518,0.1532,0.1541,0.1432,0.1432,0.1432,0,0.0937,0.0959,0.0986,0.1008,0.1036,0.1079,0.1105,0.1138,0.1193,0.1224,0.1235,0.1316,0.1338,0.1396,0.1426,0.1429,0.1439,0.1428,0.151,0.1518,0.1525,0.1537,0.1546,0.1435,0.1435,0.1435,0.1434,0,0.0943,0.0973,0.0985,0.1028,0.1059,0.1092,0.114,0.1186,0.1232,0.1267,0.1342,0.1379,0.1428,0.145,0.1462,0.1531,0.1518,0.1508,0.1484,0.154,0.1549,0.1558,0.144,0.1439,0.1438,0.1437,0,0,0.0914,0.0978,0.0983,0.1012,0.1078,0.1101,0.1163,0.1226,0.1273,0.1337,0.1399,0.1466,0.1493,0.1514,0.1537,0.1583,0.1654,0.158,0.158,0.1588,0.1724,0.1628,0.1628,0.1662,0.1664,0.1666,0.1708,0,0.0914,0.0953,0.099,0.1041,0.1068,0.1133,0.1182,0.1249,0.1314,0.1384,0.1446,0.1511,0.1514,0.1558,0.16,0.1643,0.168,0.1642,0.1673,0.1674,0.1577,0.1636,0.1672,0.1714,0.1716,0.1718,0.1719,0,0.0901,0.0936,0.0981,0.1056,0.1074,0.1116,0.1211,0.1262,0.1365,0.1421,0.1497,0.1544,0.1631,0.1625,0.1711,0.169,0.1713,0.1737,0.1739,0.1634,0.1594,0.1648,0.1734,0.1733,0.1732,0.1731,0.173,0,0.0857,0.0926,0.0965,0.0992,0.1081,0.1127,0.118,0.1278,0.1336,0.1455,0.1515,0.16,0.1658,0.1709,0.1761,0.1751,0.1841,0.1825,0.1752,0.1745,0.1792,0.1782,0.1879,0.1879,0.1878,0.1878,0.1878,0,0.0831,0.0864,0.0954,0.0976,0.1038,0.1106,0.1186,0.1255,0.1362,0.1433,0.1529,0.1595,0.1687,0.1747,0.1781,0.1788,0.1852,0.1766,0.1756,0.1814,0.1806,0.1797,0.1788,0.188,0.188,0.1879,0.1879,0,0.0769,0.0829,0.0883,0.0983,0.1021,0.1064,0.1188,0.124,0.1348,0.1447,0.1494,0.1612,0.1691,0.1755,0.1839,0.1797,0.1829,0.1811,0.1866,0.1856,0.1702,0.1695,0.1735,0.1732,0.173,0.1728,0.1726,0,0.0741,0.0761,0.0874,0.092,0.0973,0.1056,0.1112,0.1226,0.1283,0.1447,0.1482,0.1602,0.1672,0.1699,0.177,0.181,0.1794,0.1781,0.1746,0.1705,0.1691,0.1688,0.1684,0.1722,0.1722,0.1721,0.172,0,0.069,0.0737,0.0783,0.0874,0.0945,0.1014,0.1103,0.1138,0.1268,0.1374,0.1458,0.1521,0.1594,0.1649,0.168,0.1709,0.1778,0.1755,0.176,0.1727,0.169,0.1678,0.1677,0.1712,0.1713,0.1714,0.1714,0,0.0655,0.0677,0.075,0.0826,0.0907,0.0959,0.1012,0.1088,0.1156,0.1328,0.1352,0.1483,0.1581,0.1597,0.1638,0.1649,0.1633,0.158,0.1593,0.1604,0.1542,0.1475,0.143,0,0,0,0,0,0.0618,0.0647,0.0706,0.0785,0.0856,0.091,0.1004,0.1055,0.1176,0.1205,0.128,0.1356,0.143,0.1489,0.1477,0.1578,0.163,0.1557,0.1573,0.1665,0.1675,0.1615,0,0,0,0,0,0,0.0599,0.0645,0.0682,0.0736,0.0782,0.085,0.0909,0.0986,0.1006,0.1137,0.118,0.1282,0.1363,0.143,0.1456,0.1474,0.1459,0.1635,0.1632,0.1659,0.1668,0.1676,0.1618,0,0,0,0,0]},{"header":{"parameterUnit":"m.s-1","parameterCategory":2,"la1":30.2991,"la2":30.254,"lo1":-89.0895,"lo2":-89.0444,"dy":0.0017,"dx":0.0017,"nx":28,"ny":28,"refTime":"2025-08-08T09:00:00:Z","depth":"4","parameterNumber":3,"parameterNumberName":"V-component_of_CURRENTS"},"data":[0,0,0,0,0,0,0,0,0,0,0,0,0,0,0,0,0,0,0,0,0,0,0,0,0,0,0,0,0,0,0,0,0,0,0,0,0,0,0,0,0,0,0,0,0,0,0,0,0,0,0,0,0,0,0,0,0,0,0.0003,0.0003,0,-0.0027,-0.0027,-0.0028,-0.0059,-0.006,-0.006,-0.0061,-0.0133,-0.0134,-0.0136,0,0,0,0,0,0,0,0,0,0,0,0,0,-0.0006,-0.0005,0.0003,0.0003,0.0002,-0.0027,-0.0027,-0.0028,-0.0059,-0.006,-0.006,-0.0061,-0.0132,-0.0134,-0.0136,0,0,0,0,0,0,0,0,0,0,0,0,0,-0.0016,-0.0005,0.0003,-0.0017,-0.0019,-0.0027,-0.0027,-0.0028,-0.0059,-0.006,-0.006,-0.0061,-0.0132,-0.0134,-0.0136,-0.0138,0,0,-0.0143,-0.0144,0,0,0,0,0,0,0,0,-0.0015,-0.0015,-0.0014,-0.0015,-0.0018,-0.004,-0.0057,-0.0067,-0.0059,-0.0044,-0.0061,-0.0061,-0.0105,-0.011,-0.0114,-0.0141,-0.0144,-0.0144,-0.0145,-0.0146,-0.0147,0,0,0,0,0,0,0,-0.0014,-0.0014,-0.0009,-0.0014,-0.0016,-0.0038,-0.0039,-0.0059,-0.0072,-0.0045,-0.0048,-0.0051,-0.0107,-0.0111,-0.0116,-0.0145,-0.0143,-0.0145,-0.0147,-0.0148,-0.0189,-0.0189,0,0,0,0,0,0,-0.0007,-0.0013,-0.0008,-0.001,-0.0018,-0.0037,-0.0039,-0.0032,-0.0071,-0.0077,-0.005,-0.0052,-0.0107,-0.0113,-0.0118,-0.0105,-0.0146,-0.0148,-0.0149,-0.0189,-0.0189,-0.0189,0,0,0,0,0,0,-0.0007,-0.0006,-0.0007,-0.0013,-0.0015,-0.0036,-0.0028,-0.0033,-0.004,-0.0074,-0.0081,-0.0054,-0.0108,-0.0115,-0.0135,-0.0109,-0.0149,-0.0151,-0.019,-0.0189,-0.0189,-0.009,0,0,0,0,0,0,-0.0007,-0.0006,0.0001,-0.0012,-0.0014,-0.0002,-0.0028,-0.0033,-0.0041,-0.0044,-0.0079,-0.0086,-0.0109,-0.0132,-0.0138,-0.0113,-0.0153,-0.019,-0.019,-0.0189,-0.0093,-0.0086,-0.008,0,0,0,0,0,-0.0007,0.0017,0.0002,0.0002,-0.0003,-0.0001,-0.0003,-0.0021,-0.004,-0.0033,-0.0064,-0.0085,-0.0133,-0.0133,-0.014,-0.0115,-0.019,-0.019,-0.0189,-0.0096,-0.0087,-0.008,0,0,0,0,0,0,0.002,0.0015,-0.0001,0.002,0.001,-0.0006,0.0,-0.0019,-0.0037,-0.0045,-0.0082,-0.0091,-0.0098,-0.0127,-0.0127,-0.0129,-0.0165,-0.0166,-0.0092,-0.0084,-0.0077,-0.0054,-0.0155,0,0,0,0,0,0.0028,0.004,0.0027,0.0041,0.004,0.0016,0.0013,-0.0,-0.0019,-0.0027,-0.0053,-0.0083,-0.01,-0.0109,-0.0132,-0.0132,-0.0168,-0.0123,-0.0116,-0.011,-0.0098,-0.0127,-0.0121,-0.0187,-0.0187,-0.0187,0,0,0.0042,0.004,0.0046,0.0047,0.0037,0.0054,0.0014,0.0015,0.003,-0.0033,-0.0025,-0.0062,-0.0098,-0.0095,-0.0101,-0.0115,-0.0114,-0.0109,-0.0103,-0.0095,-0.0125,-0.0119,-0.0113,-0.0186,-0.0186,-0.0187,0,0,0.0086,0.0075,0.0102,0.01,0.009,0.008,0.0081,0.0065,0.0058,0.0055,0.0016,-0.0005,-0.0035,-0.0046,-0.0058,-0.003,-0.0079,-0.0043,0.0018,-0.0009,-0.0004,0.0001,-0.0046,-0.0046,-0.0035,-0.0035,-0.0035,0,0.0102,0.0132,0.0109,0.0135,0.0139,0.0097,0.0126,0.0121,0.0099,0.0098,0.0068,0.0028,-0.0005,0.0006,0.0016,-0.001,-0.0046,-0.0004,0.0002,0.0006,0.0009,-0.0041,-0.0042,-0.003,-0.0031,-0.0031,-0.0032,0,0.0166,0.0186,0.0202,0.022,0.0224,0.0239,0.0228,0.0227,0.0202,0.019,0.0181,0.0133,0.0106,0.0097,0.0067,0.0078,0.0038,0.0013,-0.0011,0.0022,-0.0033,-0.0036,-0.0023,-0.0025,-0.0026,-0.0027,0,0,0.021,0.0242,0.0246,0.026,0.0266,0.0274,0.0303,0.0313,0.0319,0.0296,0.03,0.0279,0.0235,0.0217,0.0173,0.0156,0.0141,0.0101,0.0097,0.0068,0.0063,0.0014,0.0005,0.0118,0.0118,0.0118,0.0012,0,0.0262,0.0321,0.0327,0.0377,0.0399,0.038,0.0407,0.0407,0.0387,0.0377,0.034,0.0318,0.0288,0.0258,0.0246,0.0153,0.0138,0.0171,0.0023,0.0019,-0.0017,0.0002,0.0119,0.0009,0.0008,0.0008,0.0007,0,0.0321,0.0347,0.0407,0.0437,0.0446,0.0473,0.0483,0.05,0.0486,0.0465,0.0448,0.0397,0.0368,0.0324,0.0232,0.0251,0.0175,0.0112,0.0105,0.0027,-0.0035,-0.0032,0.0,0.0001,0.0001,0.0002,0.0002,0,0.0341,0.0401,0.0445,0.0457,0.0489,0.0512,0.0526,0.0526,0.0525,0.0509,0.0479,0.0454,0.0391,0.0332,0.0198,0.0212,0.0072,0.0069,-0.0037,-0.0043,-0.0011,-0.0015,0.002,0.002,0.002,0.0021,0.0021,0,0.0382,0.0415,0.0458,0.0476,0.0516,0.0536,0.0565,0.0567,0.0559,0.0543,0.0516,0.0469,0.0386,0.0289,0.0206,0.0059,0.0076,-0.0022,-0.0066,0.0029,0.0031,-0.0015,-0.0017,0.0017,0.0018,0.0018,0.0019,0,0.0384,0.042,0.0461,0.0507,0.0524,0.0544,0.0574,0.058,0.0576,0.0544,0.0531,0.0457,0.0331,0.0232,0.0091,0.0035,-0.0079,-0.0134,-0.0046,-0.0084,-0.0173,-0.0169,-0.0238,-0.0241,-0.0243,-0.0245,-0.0246,0,0.0387,0.0411,0.0465,0.0479,0.0499,0.0536,0.0551,0.0577,0.0573,0.0521,0.049,0.0375,0.031,0.0088,-0.0008,-0.0161,-0.0179,-0.0229,-0.0159,-0.016,-0.0195,-0.0189,-0.0182,-0.0249,-0.025,-0.025,-0.0251,0,0.0371,0.0392,0.0418,0.0446,0.0471,0.0504,0.0529,0.0529,0.0535,0.0531,0.0444,0.0343,0.0186,0.0059,-0.0079,-0.018,-0.0181,-0.025,-0.0245,-0.018,-0.0174,-0.0206,-0.0197,-0.0258,-0.0257,-0.0256,-0.0256,0,0.0339,0.0345,0.0372,0.0393,0.0428,0.0448,0.0483,0.0479,0.0483,0.0451,0.0411,0.0279,0.0215,0.0042,-0.0082,-0.0191,-0.0195,-0.0194,-0.0192,-0.0185,-0.0132,-0.0114,-0.0212,0,0,0,0,0,0.0292,0.0289,0.0311,0.0335,0.0375,0.0394,0.0444,0.0477,0.0492,0.0433,0.0433,0.0298,0.0114,0.0035,-0.0081,-0.0127,-0.0225,-0.0266,-0.0225,-0.0298,-0.0289,-0.0238,0,0,0,0,0,0,0.0254,0.0267,0.0284,0.0281,0.029,0.0327,0.0363,0.0386,0.0373,0.0378,0.0287,0.0263,0.0086,0.0165,-0.0094,-0.0127,-0.0115,-0.0344,-0.0346,-0.0302,-0.0295,-0.0288,-0.0233,0,0,0,0,0]}]]